time_stamp(utc),avg(mph),gust(mph),direction(deg),12m_air_temp(f),sonic_u(cm/s),sonic_v(cm/s),sonic_w(cm/s),pressure,2m_air_temp(f),pyranometer(W/m^2)
"2020-04-30 00:01:18+00",28.2,34.2,,52.5,995,-713,-4,1019.36,52.3,0
"2020-04-30 00:06:18+00",27.2,31.2,,52.4,985,-703,-9,1019.35,52.3,0
"2020-04-30 00:11:18+00",30.2,33.2,,52.5,1095,-817,-18,1019.26,52.2,0
"2020-04-30 00:16:18+00",27.2,32.2,,52.4,958,-756,-12,1019.41,52.2,0
"2020-04-30 00:21:18+00",27.3,30.3,,52.4,947,-730,-9,1019.37,52.2,0
"2020-04-30 00:26:18+00",27.2,30.2,,52.4,975,-721,-10,1019.34,52.2,0
"2020-04-30 00:31:18+00",26.6,30.6,,52.5,960,-682,1,1019.41,52.2,0
"2020-04-30 00:36:18+00",28.2,32.2,,52.6,974,-764,-2,1019.41,52.3,0
"2020-04-30 00:41:18+00",27.5,31.5,,52.5,969,-709,17,1019.36,52.3,0
"2020-04-30 00:46:18+00",27.5,32.5,,52.5,961,-735,-14,1019.3,52.3,0
"2020-04-30 00:51:18+00",29.1,33.1,,52.4,1058,-763,-15,1019.19,52.2,0
"2020-04-30 00:56:18+00",28.4,33.4,,52.3,1035,-695,-15,1019.34,52.1,0
"2020-04-30 01:01:18+00",23.3,29.3,,52.4,704,-753,-6,1019.56,52.2,0
"2020-04-30 01:06:18+00",26.4,29.4,,52.4,936,-711,9,1019.36,52.2,0
"2020-04-30 01:11:18+00",27.1,31.1,,52.4,956,-735,-15,1019.22,52.2,0
"2020-04-30 01:16:18+00",25.3,31.3,,52.6,873,-701,-9,1019.15,52.2,0
"2020-04-30 01:21:18+00",31.2,36.2,,52.7,1129,-795,-31,1019.18,52.4,0
"2020-04-30 01:26:18+00",24.4,27.4,,52.7,821,-711,-21,1019.33,52.4,0
"2020-04-30 01:31:18+00",27.6,34.6,,52.8,1011,-697,-8,1019.14,52.5,0
"2020-04-30 01:36:18+00",24.3,28.3,,52.7,864,-657,-3,1019.35,52.5,0
"2020-04-30 01:41:18+00",24.9,30.9,,52.7,900,-636,19,1019.36,52.5,0
"2020-04-30 01:46:18+00",24.3,28.3,,52.7,860,-626,2,1019.46,52.5,0
"2020-04-30 01:51:18+00",26.2,29.2,,52.9,911,-718,-3,1019.44,52.6,0
"2020-04-30 01:56:18+00",28.3,34.3,,52.9,1025,-731,-26,1019.41,52.6,0
"2020-04-30 02:01:18+00",24.6,29.6,,52.8,877,-657,-4,1019.47,52.6,0
"2020-04-30 02:06:18+00",28.3,31.3,,52.8,1026,-727,-14,1019.36,52.6,0
"2020-04-30 02:11:18+00",25.3,29.3,,52.7,896,-687,-3,1019.43,52.5,0
"2020-04-30 02:16:18+00",25.9,28.9,,52.7,898,-726,-15,1019.43,52.5,0
"2020-04-30 02:21:18+00",24.9,29.9,,52.8,884,-672,13,1019.38,52.6,0
"2020-04-30 02:26:18+00",26.6,31.6,,52.8,968,-678,3,1019.28,52.6,0
"2020-04-30 02:31:18+00",27.6,31.6,,52.9,990,-717,-25,1019.24,52.7,0
"2020-04-30 02:36:18+00",24.4,28.4,,52.9,844,-705,-24,1019.26,52.7,0
"2020-04-30 02:41:18+00",23.3,26.3,,52.8,856,-602,4,1019.23,52.7,0
"2020-04-30 02:46:18+00",26.1,29.1,,52.8,961,-651,-9,1019.15,52.7,0
"2020-04-30 02:51:18+00",23.6,28.6,,52.8,835,-626,8,1019.3,52.7,0
"2020-04-30 02:56:18+00",22.7,26.7,,52.8,799,-602,-1,1019.31,52.6,0
"2020-04-30 03:01:18+00",23.5,26.5,,52.8,830,-635,-12,1019.4,52.6,0
"2020-04-30 03:06:18+00",23.6,29.6,,52.7,867,-611,-14,1019.24,52.6,0
"2020-04-30 03:11:18+00",24.9,29.9,,52.8,857,-712,-12,1019.28,52.6,0
"2020-04-30 03:16:18+00",21.9,24.9,,52.8,756,-616,-6,1019.3,52.6,0
"2020-04-30 03:21:18+00",21.3,24.3,,52.7,721,-632,10,1019.34,52.5,0
"2020-04-30 03:26:18+00",24.6,28.6,,52.8,826,-716,13,1019.09,52.5,0
"2020-04-30 03:31:18+00",22.1,25.1,,52.8,717,-659,-9,1019.09,52.5,0
"2020-04-30 03:36:18+00",23.5,25.5,,52.9,780,-664,-17,1018.98,52.7,0
"2020-04-30 03:41:18+00",21.8,24.8,,52.5,748,-601,-7,1018.83,52.4,0
"2020-04-30 03:46:18+00",19.4,24.4,,52.6,675,-538,23,1018.91,52.4,0
"2020-04-30 03:51:18+00",19.8,21.8,,52.5,670,-572,-8,1018.94,52.3,0
"2020-04-30 03:56:18+00",18.8,23.8,,52.6,626,-557,7,1018.92,52.3,0
"2020-04-30 04:01:18+00",19.4,23.4,,52.7,635,-585,-4,1018.85,52.4,0
"2020-04-30 04:06:18+00",20.2,22.2,,52.7,672,-590,-13,1018.87,52.5,0
"2020-04-30 04:11:18+00",20.7,23.7,,52.8,724,-564,-16,1018.83,52.6,0
"2020-04-30 04:16:18+00",19.1,22.1,,53,625,-578,-2,1018.86,52.8,0
"2020-04-30 04:21:18+00",20.0,22.0,,53.1,663,-572,-17,1018.93,52.9,0
"2020-04-30 04:26:18+00",17.5,19.5,,53.2,511,-573,-10,1019.06,53,0
"2020-04-30 04:31:18+00",20.8,23.8,,53.4,709,-593,-7,1019.14,53.2,0
"2020-04-30 04:36:18+00",17.8,20.8,,53.2,594,-522,-9,1019.31,53.1,0
"2020-04-30 04:41:18+00",18.5,20.5,,53.2,609,-546,-5,1019.3,53,0
"2020-04-30 04:46:18+00",19.3,22.3,,53.1,669,-529,-14,1019.08,52.9,0
"2020-04-30 04:51:18+00",18.2,20.2,,53.3,579,-560,-15,1019.06,53.1,0
"2020-04-30 04:56:18+00",19.0,21.0,,53.6,635,-555,-5,1018.95,53.3,0
"2020-04-30 05:01:18+00",19.7,21.7,,53.4,666,-565,-7,1018.72,53.2,0
"2020-04-30 05:06:18+00",18.4,20.4,,53.5,584,-548,-12,1018.75,53.3,0
"2020-04-30 05:11:18+00",16.0,19.0,,53,581,-420,1,1018.75,53,0
"2020-04-30 05:16:18+00",16.4,17.4,,52.5,606,-414,18,1018.69,52.6,0
"2020-04-30 05:21:18+00",17.8,21.8,,52.5,663,-412,-2,1018.61,52.5,0
"2020-04-30 05:26:18+00",20.4,23.4,,52.4,796,-450,-1,1018.41,52.4,0
"2020-04-30 05:31:18+00",20.9,22.9,,52.8,782,-520,-19,1018.32,52.5,0
"2020-04-30 05:36:18+00",20.0,22.0,,52.8,724,-504,-12,1018.24,52.6,0
"2020-04-30 05:41:18+00",22.1,27.1,,53,782,-615,-4,1018.18,52.6,0
"2020-04-30 05:46:18+00",19.6,20.6,,53,649,-571,-10,1018.34,52.7,0
"2020-04-30 05:51:18+00",18.2,20.2,,53.1,553,-594,-31,1018.17,52.8,0
"2020-04-30 05:56:18+00",19.8,21.8,,52.6,719,-514,0,1017.96,52.5,0
"2020-04-30 06:01:18+00",18.9,20.9,,52.7,593,-593,-11,1017.97,52.5,0
"2020-04-30 06:06:18+00",19.2,21.2,,52.7,628,-566,-8,1017.93,52.6,0
"2020-04-30 06:11:18+00",19.1,21.1,,52.8,618,-575,-1,1017.76,52.6,0
"2020-04-30 06:16:18+00",17.3,19.3,,52.8,541,-537,8,1017.87,52.6,0
"2020-04-30 06:21:18+00",16.1,18.1,,52.6,521,-477,10,1017.82,52.4,0
"2020-04-30 06:26:18+00",17.3,19.3,,52.6,558,-518,14,1017.73,52.4,0
"2020-04-30 06:31:18+00",16.2,18.2,,52.7,548,-462,0,1017.66,52.5,0
"2020-04-30 06:36:18+00",17.4,20.4,,52.6,585,-506,-14,1017.63,52.4,0
"2020-04-30 06:41:18+00",17.7,19.7,,52.8,630,-459,4,1017.69,52.6,0
"2020-04-30 06:46:18+00",17.4,20.4,,52.5,615,-467,0,1017.64,52.3,0
"2020-04-30 06:51:18+00",18.7,20.7,,53.1,664,-508,9,1017.71,52.6,0
"2020-04-30 06:56:18+00",16.0,18.0,,52.4,585,-412,-15,1017.68,52.3,0
"2020-04-30 07:01:18+00",15.6,17.6,,52.2,571,-395,-5,1017.66,52.2,0
"2020-04-30 07:06:18+00",15.9,18.9,,52.3,567,-407,-10,1017.61,52.2,0
"2020-04-30 07:11:18+00",15.8,16.8,,52.4,567,-403,-4,1017.54,52.2,0
"2020-04-30 07:16:18+00",16.5,18.5,,52.7,577,-459,0,1017.43,52.3,0
"2020-04-30 07:21:18+00",18.0,19.0,,52.7,661,-467,-12,1017.35,52.4,0
"2020-04-30 07:26:18+00",18.2,21.2,,52.8,644,-480,2,1017.37,52.5,0
"2020-04-30 07:31:18+00",15.8,17.8,,52.9,468,-511,-6,1017.41,52.5,0
"2020-04-30 07:36:18+00",17.0,19.0,,53.4,530,-540,-9,1017.44,53,0
"2020-04-30 07:41:18+00",17.6,20.6,,53.2,583,-513,-8,1017.49,52.9,0
"2020-04-30 07:46:18+00",17.6,19.6,,52.9,548,-546,-14,1017.39,52.7,0
"2020-04-30 07:51:18+00",19.4,21.4,,53.3,611,-610,-13,1017.31,52.9,0
"2020-04-30 07:56:18+00",17.6,18.6,,52.9,567,-517,-11,1017.21,52.7,0
"2020-04-30 08:01:18+00",17.6,19.6,,53.1,558,-550,-16,1017.25,52.8,0
"2020-04-30 08:06:18+00",17.7,19.7,,53.4,511,-586,-14,1017.28,52.9,0
"2020-04-30 08:11:18+00",17.3,19.3,,53.6,525,-558,-14,1017.25,53.1,0
"2020-04-30 08:16:18+00",15.8,18.8,,53.5,488,-496,-10,1017.36,53.1,0
"2020-04-30 08:21:18+00",15.3,17.3,,53.8,419,-525,-21,1017.31,53.3,0
"2020-04-30 08:26:18+00",15.4,17.4,,53.8,436,-501,-14,1017.33,53.4,0
"2020-04-30 08:31:18+00",16.2,18.2,,53.5,488,-526,-24,1017.21,53.1,0
"2020-04-30 08:36:18+00",16.3,18.3,,53.5,475,-537,-15,1017.12,53.1,0
"2020-04-30 08:41:18+00",17.2,20.2,,53.6,530,-555,-16,1017.11,53.2,0
"2020-04-30 08:46:18+00",15.4,17.4,,53.4,472,-491,-1,1017.14,53.1,0
"2020-04-30 08:51:18+00",15.1,17.1,,53.1,473,-461,-12,1017.14,52.8,0
"2020-04-30 08:56:18+00",15.6,17.6,,52.9,484,-487,1,1017.14,52.6,0
"2020-04-30 09:01:18+00",17.3,21.3,,53.1,592,-491,4,1017.01,52.7,0
"2020-04-30 09:06:18+00",16.6,18.6,,53.4,523,-511,-12,1016.99,52.9,0
"2020-04-30 09:11:18+00",17.7,19.7,,53.9,523,-573,-12,1016.89,53.3,0
"2020-04-30 09:16:18+00",18.9,20.9,,54.2,568,-609,-6,1016.84,53.5,0
"2020-04-30 09:21:18+00",18.4,21.4,,54.5,517,-621,-15,1016.86,53.7,0
"2020-04-30 09:26:18+00",20.8,22.8,,54.4,662,-635,-12,1016.79,54,0
"2020-04-30 09:31:18+00",20.0,24.0,,53.8,649,-609,-8,1016.66,53.6,0
"2020-04-30 09:36:18+00",19.3,22.3,,53.5,597,-588,-16,1016.7,53.3,0
"2020-04-30 09:41:18+00",19.2,21.2,,53.5,582,-617,-8,1016.57,53.2,0
"2020-04-30 09:46:18+00",19.4,21.4,,53.6,552,-649,-36,1016.67,53.3,0
"2020-04-30 09:51:18+00",16.8,19.8,,53.6,445,-586,-8,1016.67,53.2,0
"2020-04-30 09:56:18+00",17.1,21.1,,53.8,426,-627,-14,1016.75,53.3,0
"2020-04-30 10:01:18+00",17.6,19.6,,54.1,426,-648,-18,1016.64,53.6,0
"2020-04-30 10:06:18+00",16.5,19.5,,54.1,416,-598,-6,1016.62,53.6,0
"2020-04-30 10:11:18+00",16.5,19.5,,54.1,401,-601,-12,1016.56,53.6,0
"2020-04-30 10:16:18+00",16.5,18.5,,54.6,357,-633,-16,1016.59,54,0
"2020-04-30 10:21:18+00",16.4,17.4,,54.8,361,-614,-16,1016.55,54.1,0
"2020-04-30 10:26:18+00",16.7,18.7,,54.9,338,-647,-15,1016.67,54.2,0
"2020-04-30 10:31:18+00",15.8,16.8,,54.8,333,-614,-11,1016.64,54.3,0
"2020-04-30 10:36:18+00",15.7,18.7,,54.7,376,-572,-12,1016.67,54.2,0
"2020-04-30 10:41:18+00",14.8,17.8,,54.4,371,-537,-6,1016.73,54.1,0
"2020-04-30 10:46:18+00",15.8,18.8,,54.3,400,-553,3,1016.72,54,0
"2020-04-30 10:51:18+00",16.4,18.4,,54.1,385,-610,-17,1016.74,53.9,0
"2020-04-30 10:56:18+00",16.4,18.4,,54.1,399,-601,-18,1016.78,53.8,0
"2020-04-30 11:01:18+00",17.2,20.2,,54.2,441,-611,-17,1016.67,53.9,0.5
"2020-04-30 11:06:18+00",17.7,21.7,,54.3,440,-638,1,1016.66,54,5.8
"2020-04-30 11:11:18+00",17.8,19.8,,54.5,410,-660,-5,1016.75,54.2,0
"2020-04-30 11:16:18+00",18.3,22.3,,54.7,396,-688,-12,1016.67,54.4,1.7
"2020-04-30 11:21:18+00",18.1,20.1,,54.8,443,-659,-2,1016.69,54.5,0
"2020-04-30 11:26:18+00",17.7,20.7,,54.6,471,-613,-10,1016.58,54.4,7
"2020-04-30 11:31:18+00",19.7,22.7,,54.7,490,-693,-18,1016.59,54.5,11.2
"2020-04-30 11:36:18+00",19.6,22.6,,54.8,496,-708,-27,1016.4,54.6,15.5
"2020-04-30 11:41:18+00",20.1,23.1,,55,520,-713,-16,1016.29,54.7,26.1
"2020-04-30 11:46:18+00",20.4,22.4,,54.8,518,-719,-35,1016.31,54.7,24.8
"2020-04-30 11:51:18+00",20.0,23.0,,55,520,-712,-30,1016.3,54.9,38.3
"2020-04-30 11:56:18+00",19.1,22.1,,55.2,456,-699,-7,1016.4,55.1,46.5
"2020-04-30 12:01:18+00",19.8,23.8,,55.1,508,-705,-5,1016.48,55.1,21.8
"2020-04-30 12:06:18+00",18.6,21.6,,54.7,501,-652,2,1016.3,54.8,27.3
"2020-04-30 12:11:18+00",20.4,23.4,,54.8,559,-698,-18,1016.27,54.8,70.4
"2020-04-30 12:16:18+00",19.4,21.4,,54.7,579,-613,-11,1016.32,54.9,61
"2020-04-30 12:21:18+00",17.2,20.2,,54.5,481,-576,5,1016.34,54.8,59.1
"2020-04-30 12:26:18+00",17.7,20.7,,54.5,448,-643,-12,1016.51,54.8,60.9
"2020-04-30 12:31:18+00",19.8,22.8,,54.9,448,-745,-14,1016.44,55,54
"2020-04-30 12:36:18+00",18.4,20.4,,55.1,386,-717,-18,1016.33,55.1,68.8
"2020-04-30 12:41:18+00",18.4,21.4,,55.3,415,-693,-20,1016.17,55.5,160.1
"2020-04-30 12:46:18+00",22.3,24.3,,56,459,-855,-18,1016.03,56.2,242.9
"2020-04-30 12:51:18+00",22.3,26.3,,56.5,477,-850,-4,1015.95,57,284.5
"2020-04-30 12:56:18+00",21.8,25.8,,56.9,439,-844,-13,1015.86,57.6,250.5
"2020-04-30 13:01:18+00",22.6,27.6,,57.2,411,-893,-11,1015.91,57.8,199.2
"2020-04-30 13:06:18+00",24.2,29.2,,57.3,475,-941,-12,1015.8,57.8,169.3
"2020-04-30 13:11:18+00",25.1,30.1,,57.6,472,-985,-18,1015.88,58.2,126.1
"2020-04-30 13:16:18+00",23.6,27.6,,57.3,444,-929,4,1015.98,57.8,187.3
"2020-04-30 13:21:18+00",23.5,26.5,,57.4,487,-901,-15,1016.07,58.1,179.8
"2020-04-30 13:26:18+00",22.2,26.2,,57.3,523,-817,13,1016.14,58.1,148.3
"2020-04-30 13:31:18+00",20.8,24.8,,56.7,461,-784,-5,1016.12,57.4,82.9
"2020-04-30 13:36:18+00",23.6,27.6,,56.8,440,-923,-10,1016.08,57.2,102.5
"2020-04-30 13:41:18+00",25.0,29.0,,57.3,500,-962,2,1015.82,57.5,203.3
"2020-04-30 13:46:18+00",24.6,28.6,,57.3,596,-888,-20,1015.76,58.1,216.9
"2020-04-30 13:51:18+00",25.2,29.2,,56.8,596,-918,-24,1015.77,57.8,187.9
"2020-04-30 13:56:18+00",25.2,29.2,,56.8,572,-947,-17,1015.8,57.5,175.6
"2020-04-30 14:01:18+00",23.2,27.2,,56.6,530,-870,-8,1015.75,57.2,103.8
"2020-04-30 14:06:18+00",23.8,27.8,,56.3,556,-881,-15,1015.73,56.8,79.5
"2020-04-30 14:11:18+00",24.5,28.5,,56.3,569,-911,-19,1015.68,56.7,124.1
"2020-04-30 14:16:18+00",24.6,27.6,,56.5,558,-936,-20,1015.69,56.8,118.1
"2020-04-30 14:21:18+00",25.6,29.6,,56.2,619,-928,-26,1015.63,56.7,124.9
"2020-04-30 14:26:18+00",25.3,27.3,,56.1,658,-902,-37,1015.69,56.7,129.6
"2020-04-30 14:31:18+00",24.0,27.0,,56,639,-831,-10,1015.79,56.5,68.4
"2020-04-30 14:36:18+00",23.1,27.1,,55.8,575,-825,-15,1015.84,56.2,47.1
"2020-04-30 14:41:18+00",20.2,22.2,,55.5,564,-709,-13,1015.86,55.9,42
"2020-04-30 14:46:18+00",24.2,29.2,,55.6,642,-830,-29,1015.72,55.8,38.1
"2020-04-30 14:51:18+00",22.0,26.0,,55.3,583,-768,-13,1015.9,55.4,17.4
"2020-04-30 14:56:18+00",21.9,26.9,,55.1,593,-759,-14,1015.85,55.3,57.4
"2020-04-30 15:01:18+00",22.7,26.7,,55.1,611,-792,6,1015.59,55.3,39.4
"2020-04-30 15:06:18+00",25.7,29.7,,55.3,655,-930,-35,1015.54,55.3,53.5
"2020-04-30 15:11:18+00",23.6,26.6,,55.8,579,-876,-8,1015.51,55.8,42.8
"2020-04-30 15:16:18+00",28.1,32.1,,56.3,636,-1051,-40,1015.5,56.1,46.7
"2020-04-30 15:21:18+00",26.5,30.5,,56.6,680,-917,-34,1015.36,56.6,112.1
"2020-04-30 15:26:18+00",26.7,29.7,,56.6,690,-951,-51,1015.32,56.8,118.1
"2020-04-30 15:31:18+00",26.6,29.6,,56.6,658,-961,-27,1015.38,56.9,73.9
"2020-04-30 15:36:18+00",27.2,31.2,,56.4,652,-1003,-41,1015.43,56.6,31.2
"2020-04-30 15:41:18+00",25.5,30.5,,56.1,672,-888,-35,1015.25,56.5,121.8
"2020-04-30 15:46:18+00",25.3,30.3,,56.1,674,-876,-9,1015.14,56.5,101.3
"2020-04-30 15:51:18+00",24.1,30.1,,56.1,640,-834,15,1015.08,56.5,104.7
"2020-04-30 15:56:18+00",26.0,29.0,,56.1,661,-935,-23,1014.97,56.4,36
"2020-04-30 16:01:18+00",27.4,32.4,,56.4,667,-978,-43,1014.89,56.6,54.9
"2020-04-30 16:06:18+00",25.7,29.7,,56,619,-943,-29,1014.84,56.2,14.7
"2020-04-30 16:11:18+00",25.0,27.0,,55.8,644,-902,-8,1014.81,56.1,153.6
"2020-04-30 16:16:18+00",28.6,33.6,,56,722,-1027,-31,1014.58,56.5,153.8
"2020-04-30 16:21:18+00",25.5,29.5,,56.3,672,-906,-20,1014.47,56.7,164.6
"2020-04-30 16:26:18+00",29.7,33.7,,56.7,790,-1032,-27,1014.33,57.2,254.8
"2020-04-30 16:31:18+00",26.5,31.5,,57.3,682,-950,9,1014.21,58.2,304.3
"2020-04-30 16:36:18+00",28.8,32.8,,57.1,747,-1028,-30,1014.09,58,192.4
"2020-04-30 16:41:18+00",29.3,33.3,,57.1,748,-1056,-23,1014.01,58,195.5
"2020-04-30 16:46:18+00",29.7,35.7,,57.2,760,-1057,-16,1014.11,58.1,188.5
"2020-04-30 16:51:18+00",28.3,33.3,,57.4,747,-995,-3,1013.93,58.5,532.6
"2020-04-30 16:56:18+00",29.0,34.0,,57.3,764,-1011,-20,1013.72,58.4,312.5
"2020-04-30 17:01:18+00",29.2,33.2,,57.6,743,-1058,-9,1013.8,58.7,232.6
"2020-04-30 17:06:18+00",32.1,36.1,,57.4,818,-1146,-43,1013.72,58.4,186.7
"2020-04-30 17:11:18+00",32.4,38.4,,57.2,833,-1148,-43,1013.74,58.3,210.9
"2020-04-30 17:16:18+00",30.4,34.4,,56.9,788,-1072,-28,1013.64,57.6,184.1
"2020-04-30 17:21:18+00",30.7,34.7,,57,804,-1084,-16,1013.64,57.7,172
"2020-04-30 17:26:18+00",27.5,31.5,,57,730,-956,-1,1013.61,57.8,206.4
"2020-04-30 17:31:18+00",30.9,34.9,,56.7,851,-1067,-32,1013.61,57.4,172
"2020-04-30 17:36:18+00",28.4,34.4,,56.8,804,-944,-16,1013.56,57.6,199.4
"2020-04-30 17:41:18+00",27.4,32.4,,56.8,766,-930,0,1013.31,57.6,174.8
"2020-04-30 17:46:18+00",29.4,33.4,,56.6,860,-969,-21,1013.07,57.5,232.5
"2020-04-30 17:51:18+00",30.7,34.7,,56.7,874,-1036,-30,1012.77,58,398.1
"2020-04-30 17:56:18+00",31.1,35.1,,57.1,930,-1008,-10,1012.63,58.4,439.7
"2020-04-30 18:01:18+00",32.5,39.5,,57.3,936,-1062,-20,1012.43,58.6,290.4
"2020-04-30 18:06:18+00",28.4,32.4,,57.4,781,-969,-19,1012.56,58.5,347.8
"2020-04-30 18:11:18+00",30.7,39.7,,57.7,843,-1055,-9,1012.46,58.8,293.9
"2020-04-30 18:16:18+00",29.3,34.3,,57.5,828,-971,-5,1012.44,58.5,197.9
"2020-04-30 18:21:18+00",29.6,32.6,,57.4,832,-986,8,1012.48,58.2,132.8
"2020-04-30 18:26:18+00",31.2,35.2,,57.1,849,-1071,-34,1012.29,57.7,78.7
"2020-04-30 18:31:18+00",27.9,33.9,,56.9,768,-955,-8,1012.45,57.4,65.7
"2020-04-30 18:36:18+00",30.2,34.2,,56.9,805,-1052,-43,1012.23,57.2,78.5
"2020-04-30 18:41:18+00",32.1,35.1,,57,861,-1104,-31,1012.21,57.4,125.4
"2020-04-30 18:46:18+00",29.7,34.7,,57.1,795,-1031,-23,1012.23,57.5,96.1
"2020-04-30 18:51:18+00",31.3,36.3,,57.2,813,-1098,-35,1012.05,57.6,136.7
"2020-04-30 18:56:18+00",30.1,34.1,,57.2,833,-1017,-33,1012.03,57.6,147.3
"2020-04-30 19:01:18+00",31.5,35.5,,57.3,817,-1103,-36,1011.88,57.8,186.6
"2020-04-30 19:06:18+00",27.8,31.8,,57.3,766,-955,-6,1011.77,57.9,161.1
"2020-04-30 19:11:18+00",28.6,30.6,,57.3,779,-991,10,1011.69,57.8,157.9
"2020-04-30 19:16:18+00",31.7,35.7,,57.3,869,-1068,-18,1011.49,58,237.2
"2020-04-30 19:21:18+00",28.2,30.2,,57.3,780,-960,-6,1011.35,58,148.7
"2020-04-30 19:26:18+00",31.4,34.4,,57.2,867,-1073,-17,1011.1,57.8,131.5
"2020-04-30 19:31:18+00",30.2,36.2,,57.3,809,-1042,5,1011.19,57.7,88.9
"2020-04-30 19:36:18+00",32.2,36.2,,57.1,839,-1126,-35,1011.1,57.4,64.4
"2020-04-30 19:41:18+00",31.3,36.3,,57,844,-1091,-21,1010.88,57.3,63
"2020-04-30 19:46:18+00",29.0,36.0,,57.1,758,-1024,13,1010.89,57.3,80.6
"2020-04-30 19:51:18+00",31.7,36.7,,57.2,848,-1105,-40,1010.74,57.3,56.6
"2020-04-30 19:56:18+00",30.5,35.5,,57.1,805,-1072,-17,1010.81,57.2,35.6
"2020-04-30 20:01:18+00",29.0,34.0,,57.1,789,-995,5,1010.64,57.1,35.6
"2020-04-30 20:06:18+00",31.2,34.2,,57.1,849,-1067,-19,1010.57,57.1,33.9
"2020-04-30 20:11:18+00",28.9,32.9,,57.2,801,-976,-7,1010.49,57.2,33.4
"2020-04-30 20:16:18+00",30.8,35.8,,57.2,845,-1048,-38,1010.37,57.2,29.4
"2020-04-30 20:21:18+00",30.8,36.8,,57.1,852,-1035,-25,1010.34,57.1,26.5
"2020-04-30 20:26:18+00",29.5,34.5,,56.9,828,-1011,-29,1010.27,56.9,13.3
"2020-04-30 20:31:18+00",29.6,35.6,,56.8,874,-964,-12,1010.03,56.8,17.7
"2020-04-30 20:36:18+00",28.0,34.0,,56.7,834,-915,-9,1009.97,56.7,16.2
"2020-04-30 20:41:18+00",30.1,34.1,,56.7,897,-981,-10,1009.86,56.7,18.9
"2020-04-30 20:46:18+00",29.8,34.8,,56.7,848,-978,6,1009.63,56.7,5.6
"2020-04-30 20:51:18+00",28.6,34.6,,56.7,806,-968,-5,1009.63,56.7,23.2
"2020-04-30 20:56:18+00",31.3,35.3,,56.7,917,-1034,-34,1009.47,56.7,18.5
"2020-04-30 21:01:18+00",32.0,38.0,,56.8,933,-1044,-34,1009.41,56.7,18.8
"2020-04-30 21:06:18+00",31.7,35.7,,56.9,971,-993,-15,1009.32,56.8,15.4
"2020-04-30 21:11:18+00",29.8,33.8,,56.8,874,-987,-21,1009.39,56.8,13
"2020-04-30 21:16:18+00",29.6,35.6,,56.7,892,-951,-25,1009.27,56.7,9
"2020-04-30 21:21:18+00",30.1,34.1,,56.7,926,-949,-14,1009.08,56.6,9.6
"2020-04-30 21:26:18+00",31.7,35.7,,56.8,915,-1054,-20,1009.14,56.7,10.4
"2020-04-30 21:31:18+00",30.2,33.2,,56.6,946,-928,14,1009.05,56.6,7.5
"2020-04-30 21:36:18+00",31.4,35.4,,56.5,1010,-944,-10,1008.57,56.4,0.5
"2020-04-30 21:41:18+00",32.5,36.5,,56.4,991,-1034,-39,1008.44,56.3,0.7
"2020-04-30 21:46:18+00",29.7,36.7,,56.4,886,-952,-4,1008.73,56.3,2.7
"2020-04-30 21:51:18+00",27.5,33.5,,56.2,883,-840,-2,1008.32,56.2,0
"2020-04-30 21:56:18+00",32.0,38.0,,56.3,958,-1030,1,1008.34,56.2,0.8
"2020-04-30 22:01:18+00",32.0,37.0,,56.3,991,-1006,-26,1008.22,56.2,0
"2020-04-30 22:06:18+00",33.2,35.2,,56.3,979,-1072,-34,1008.34,56.1,0
"2020-04-30 22:11:18+00",32.0,37.0,,56.3,943,-1045,-19,1008.2,56.1,0
"2020-04-30 22:16:18+00",30.4,34.4,,56.4,872,-1010,-34,1008.34,56.2,0
"2020-04-30 22:21:18+00",30.2,36.2,,56.4,859,-1003,-7,1008.21,56.2,0
"2020-04-30 22:26:18+00",31.2,38.2,,56.3,921,-1010,-10,1007.95,56.1,0
"2020-04-30 22:31:18+00",31.3,34.3,,56.3,899,-1042,-12,1007.9,56,0
"2020-04-30 22:36:18+00",34.9,38.9,,56.4,1001,-1153,-30,1008.02,56.1,0
"2020-04-30 22:41:18+00",30.7,36.7,,56.2,906,-980,11,1007.84,55.9,0
"2020-04-30 22:46:18+00",29.8,32.8,,56.2,835,-1000,-4,1007.86,56,0
"2020-04-30 22:51:18+00",30.9,36.9,,56.2,914,-1000,-2,1007.59,56,0
"2020-04-30 22:56:18+00",29.6,36.6,,56.1,888,-967,1,1007.41,55.9,0
"2020-04-30 23:01:18+00",30.3,34.3,,56.2,877,-1006,-3,1007.35,55.9,0
"2020-04-30 23:06:18+00",32.0,37.0,,56.3,940,-1048,-37,1007.16,56,0
"2020-04-30 23:11:18+00",34.4,39.4,,56.5,1052,-1085,-34,1007,56.1,0
"2020-04-30 23:16:18+00",32.1,36.1,,56.6,946,-1049,-20,1006.97,56.2,0
"2020-04-30 23:21:18+00",32.5,39.5,,56.5,-238,-984,672,1006.85,55.9,0
"2020-04-30 23:26:18+00",34.7,37.7,,56.5,2981,2686,2141,1006.87,55.7,0
"2020-04-30 23:31:18+00",32.5,40.5,,56.5,982,2915,3223,1006.71,55.7,0
"2020-04-30 23:41:18+00",35.8,39.8,,56.6,1740,810,1295,1006.53,55.7,0
"2020-04-30 23:46:18+00",33.0,39.0,,56.6,1610,1178,1626,1006.65,55.8,0
"2020-04-30 23:51:18+00",33.6,36.6,,56.5,1114,1665,2212,1006.72,55.7,0
"2020-04-30 23:56:18+00",33.0,40.0,,56,974,2431,2954,1006.94,55.4,0
